Weather History for Burlington Piers, ON

Change the Weather History Date:

Sunday, September 30, 2012

  Actual Average Record
Temperature  
Mean Temperature 56 °F -  
Max Temperature 61 °F - - ()
Min Temperature 50 °F - - ()
Degree Days  
Heating Degree Days 10    
Growing Degree Days 6 (Base 50)    
Moisture  
Dew Point 47 °F    
Average Humidity 75    
Maximum Humidity 89    
Minimum Humidity 49    
Precipitation  
Precipitation 0.00 in - - ()
Sea Level Pressure  
Sea Level Pressure 29.92 in    
Wind  
Wind Speed 7 mph ()    
Max Wind Speed 12 mph    
Max Gust Speed -    
T = Trace of Precipitation, MM = Missing Value Source: Averaged Metar Reports

Daily Weather History Graph

Daily Weather History Graph

Search for Another Location

Airport:

Trip Planner

Search our weather history database for the weather conditions in past years. The results will help you decide how hot, cold, wet, or windy it might be!

Date:

Astronomy

Sep. 30, 2012 Rise Set
Actual Time 7:15 AM EDT 7:01 PM EDT
Civil Twilight 6:47 AM EDT 7:29 PM EDT
Nautical Twilight 6:14 AM EDT 8:02 PM EDT
Astronomical Twilight 5:40 AM EDT 8:36 PM EDT
Moon 7:01 PM EDT (9/30) 7:47 AM EDT (9/30)
Length of Visible Light 12h 42m
Length of Day
11h 45m
Full, 100% of the Moon is Illuminated
Sep 30
Full
Oct 8
Last Quarter
Oct 15
New
Oct 21
First Quarter
Oct 29
Full

Hourly Weather History & Observations

Time (EDT) Temp. Dew Point Humidity Pressure Visibility Wind Dir Wind Speed Gust Speed Precip Events Conditions
12:00 AM 53.8 °F 46.9 °F 78% 29.96 in - North 10.4 mph - N/A   Unknown
1:00 AM 52.7 °F 47.7 °F 83% 29.96 in - NNE 6.9 mph - N/A   Unknown
2:00 AM 53 °F 47 °F 75% 29.96 in - NNE 11.5 mph - -  
2:00 AM 53.1 °F 47.3 °F 81% 29.96 in - NNE 11.5 mph - N/A   Unknown
3:00 AM 52.2 °F 48.6 °F 88% 29.95 in - North 11.5 mph - N/A   Unknown
4:00 AM 52.2 °F 47.3 °F 83% 29.94 in - NNW 5.8 mph - N/A   Unknown
5:00 AM 51.8 °F 48.6 °F 89% 29.94 in - NNW 6.9 mph - N/A   Unknown
6:00 AM 52.0 °F 48.7 °F 89% 29.94 in - NNW 5.8 mph - N/A   Unknown
7:00 AM 51.8 °F 48.2 °F 88% 29.94 in - North 8.1 mph - N/A   Unknown
8:00 AM 52 °F 48 °F 83% 29.94 in - North 6.9 mph - -  
8:00 AM 51.8 °F 48.4 °F 88% 29.94 in - North 6.9 mph - N/A   Unknown
9:00 AM 50.9 °F 47.3 °F 87% 29.95 in - NNW 11.5 mph - N/A   Unknown
10:00 AM 53.2 °F 47.7 °F 81% 29.95 in - North 10.4 mph - N/A   Unknown
11:00 AM 52.7 °F 47.7 °F 83% 29.95 in - ENE 6.9 mph - N/A   Unknown
12:00 PM 52.7 °F 47.5 °F 82% 29.94 in - East 8.1 mph - N/A   Unknown
1:00 PM 54.0 °F 48.4 °F 81% 29.93 in - ESE 6.9 mph - N/A   Unknown
2:00 PM 54 °F 48 °F 74% 29.91 in - ESE 5.8 mph - -  
2:00 PM 54.1 °F 48.2 °F 80% 29.91 in - ESE 5.8 mph - N/A   Unknown
3:00 PM 54.7 °F 49.1 °F 81% 29.89 in - ESE 6.9 mph - N/A   Unknown
4:00 PM 56.5 °F 48.0 °F 73% 29.88 in - ESE 6.9 mph - N/A   Unknown
5:00 PM 61.2 °F 43.3 °F 52% 29.86 in - SSE 4.6 mph - N/A   Unknown
6:00 PM 61.7 °F 42.3 °F 49% 29.86 in - North 4.6 mph - N/A   Unknown
7:00 PM 58.5 °F 45.9 °F 63% 29.87 in - ENE 5.8 mph - N/A   Unknown
8:00 PM 57 °F 44 °F 51% 29.89 in - WNW 1.2 mph - -  
8:00 PM 57.4 °F 43.7 °F 60% 29.89 in - WNW 1.2 mph - N/A   Unknown
9:00 PM 58.1 °F 43.0 °F 57% 29.88 in - NW 4.6 mph - N/A   Unknown
10:00 PM 57.4 °F 42.4 °F 57% 29.89 in - West 3.5 mph - N/A   Unknown
11:00 PM 57.0 °F 43.0 °F 59% 29.90 in - West 5.8 mph - N/A   Unknown